COSMOS 1275 DEB, 13490

Orbit data source: Space-Track

COSMOS 1275 DEB, 13490 is space debris in LEO originally from a launch on Thu, 04 Jun 1981 UTC launched from the Plesetsk Missile And Space Complex (PKMTR). Debris objects in space refer to the collection of defunct objects orbiting the Earth. Examples of debris include non-operational satellites, rocket bodies, and fragments generated from explosions, collisions, or faulty payload assembly.

Loading next visibility...
Identifier
13490, 1981-053GL
Orbit
LEO
Country
Flag of CISCIS
Related business
Manufacturer
Unknown
Mission
Spacecraft
Bus & Motor
Unknown
Mass
Unknown
Launch date (UTC)
1981-06-04 (45 years ago)
Launch vehicle
Unknown
Launch site
Plesetsk Missile And Space Complex (PKMTR)
Object type
Payload
Rocket body
Debris
Shape & HBR
Unknown shape, 0.1 m
Radar Cross Section
Small (<0.1 m²)

Expand to show TLE details & history
Last TLE update: 6 hours ago

TLE from 6 hours ago
0 COSMOS 1275 DEB
1 13490U 81053GL  26121.55037447  .00000307  00000-0  28898-3 0  9999
2 13490  82.8331 141.9192 0063340 220.4378 302.3481 13.77551077202753
Epoch: 2026-05-01T13:12Z
TLE epoch observation values (Epoch: 2026-05-01T13:12:32.354Z)
Latitude
17.67632°
Longitude
-97.98122°
Altitude
950.206 km
Speed
7.39 km/s
True Right ascension
21h 18m 32s
True Declination
17° 34' 47"
Sunlit
Object was in daylight at epoch
Visualization orbit readout
Latitude
Unknown
Longitude
Unknown
Altitude
Unknown
Speed
Unknown
Apparent Right ascension
Unknown
Apparent Declination
Unknown
Sunlit
N/A
Visualization observer readout
Local Sidereal Time
02:56:58
Azimuth
Unknown
Elevation
Unknown
Doppler factor
Unknown
Orbital elements
Apogee altitude
1,016.276 km
Perigee altitude
923.194 km
Semi-major axis
7,347.872 km
Eccentricity
0.00633
Inclination
82.8331°
RAAN
141.9192°
Arg. of periapsis
220.4378°
True anomaly
301.73232°
Mean anomaly
302.3481°
Eccentric anomaly
302.04047°
Mean motion
3.44589 °/min
Orbital period
104.47 mins
BSTAR
0.00028898
Loading maneuver chart data...
Computing Atmospheric mass density...
Loading historical data...
Loading historical data...
Loading historical data...
Loading historical data...
Loading historical data...
Loading historical data...
Loading historical data...

Documentation

Showing up to 5 results
|